H1 CPF 2 NER 2022 3 1 9 060 01 glonass107 H2 0706501 9107 32393 2022 3 1 0 0 0 2022 3 4 23 45 0 900 1 1 0 0 0 1 H9 10 0 59639 0.00000 0 -10960172.305 -7236993.947 21845894.673 10 0 59639 900.00000 0 -11262717.588 -9845953.775 20640430.499 10 0 59639 1800.00000 0 -11724088.602 -12255226.709 19033326.286 10 0 59639 2700.00000 0 -12307455.902 -14409818.385 17055915.449 10 0 59639 3600.00000 0 -12967529.852 -16264019.946 14746733.737 10 0 59639 4500.00000 0 -13652580.245 -17783081.074 12150762.025 10 0 59639 5400.00000 0 -14306743.083 -18944430.445 9318543.495 10 0 59639 6300.00000 0 -14872516.325 -19738393.866 6305192.820 10 0 59639 7200.00000 0 -15293338.426 -20168381.477 3169317.329 10 0 59639 8100.00000 0 -15516140.085 -20250537.934 -28128.262 10 0 59639 9000.00000 0 -15493760.913 -20012872.063 -3225030.699 10 0 59639 9900.00000 0 -15187128.654 -19493904.347 -6359326.830 10 0 59639 10800.00000 0 -14567108.798 -18740890.803 -9370208.245 10 0 59639 11700.00000 0 -13615946.556 -17807699.341 -12199298.330 10 0 59639 12600.00000 0 -12328240.503 -16752428.992 -14791778.921 10 0 59639 13500.00000 0 -10711406.945 -15634872.728 -17097445.176 10 0 59639 14400.00000 0 -8785615.389 -14513930.668 -19071668.896 10 0 59639 15300.00000 0 -6583197.565 -13445082.050 -20676252.543 10 0 59639 16200.00000 0 -4147554.107 -12478021.420 -21880158.542 10 0 59639 17100.00000 0 -1531603.628 -11654557.240 -22660100.901 10 0 59639 18000.00000 0 1204162.354 -11006859.980 -23000988.728 10 0 59639 18900.00000 0 3993939.217 -10556132.030 -22896213.961 10 0 59639 19800.00000 0 6769091.623 -10311754.281 -22347778.294 10 0 59639 20700.00000 0 9460757.118 -10270944.527 -21366256.986 10 0 59639 21600.00000 0 12002464.728 -10418941.736 -19970600.084 10 0 59639 22500.00000 0 14332661.515 -10729708.548 -18187774.221 10 0 59639 23400.00000 0 16397043.466 -11167122.977 -16052251.059 10 0 59639 24300.00000 0 18150594.962 -11686609.889 -13605351.114 10 0 59639 25200.00000 0 19559252.630 -12237144.425 -10894454.410 10 0 59639 26100.00000 0 20601124.539 -12763543.751 -7972092.143 10 0 59639 27000.00000 0 21267213.907 -13208951.081 -4894935.915 10 0 59639 27900.00000 0 21561616.912 -13517407.412 -1722703.363 10 0 59639 28800.00000 0 21501185.936 -13636402.206 1482998.898 10 0 59639 29700.00000 0 21114672.181 -13519294.667 4659872.665 10 0 59639 30600.00000 0 20441383.391 -13127502.252 7746142.355 10 0 59639 31500.00000 0 19529413.118 -12432362.542 10681761.795 10 0 59639 32400.00000 0 18433516.233 -11416588.144 13409589.456 10 0 59639 33300.00000 0 17212720.480 -10075251.312 15876508.445 10 0 59639 34200.00000 0 15927775.246 -8416254.915 18034468.575 10 0 59639 35100.00000 0 14638545.649 -6460268.006 19841429.532 10 0 59639 36000.00000 0 13401462.357 -4240126.983 21262186.177 10 0 59639 36900.00000 0 12267135.177 -1799726.002 22269059.414 10 0 59639 37800.00000 0 11278231.344 807558.069 22842438.957 10 0 59639 38700.00000 0 10467708.101 3520841.285 22971167.264 10 0 59639 39600.00000 0 9857474.030 6274026.857 22652757.147 10 0 59639 40500.00000 0 9457535.262 8998322.724 21893438.904 10 0 59639 41400.00000 0 9265662.074 11624877.780 20708036.157 10 0 59639 42300.00000 0 9267589.231 14087426.938 19119673.006 10 0 59639 43200.00000 0 9437740.795 16324834.973 17159318.383 10 0 59639 44100.00000 0 9740447.816 18283433.367 14865176.749 10 0 59639 45000.00000 0 10131606.486 19919052.941 12281937.326 10 0 59639 45900.00000 0 10560705.591 21198668.083 9459896.905 10 0 59639 46800.00000 0 10973136.554 22101584.732 6453973.786 10 0 59639 47700.00000 0 11312687.405 22620123.487 3322632.672 10 0 59639 48600.00000 0 11524114.359 22759770.669 126742.087 10 0 59639 49500.00000 0 11555681.557 22538792.560 -3071612.919 10 0 59639 50400.00000 0 11361561.090 21987330.639 -6210338.987 10 0 59639 51300.00000 0 10903991.578 21146017.416 -9228539.806 10 0 59639 52200.00000 0 10155103.995 20064172.442 -12067695.014 10 0 59639 53100.00000 0 9098337.709 18797655.396 -14672789.777 10 0 59639 54000.00000 0 7729387.064 17406467.179 -16993373.586 10 0 59639 54900.00000 0 6056638.594 15952199.954 -18984528.446 10 0 59639 55800.00000 0 4101080.297 14495442.992 -20607728.548 10 0 59639 56700.00000 0 1895686.229 13093252.412 -21831575.923 10 0 59639 57600.00000 0 -515698.670 11796789.864 -22632398.980 10 0 59639 58500.00000 0 -3079928.102 10649227.833 -22994703.372 10 0 59639 59400.00000 0 -5736514.329 9684007.916 -22911467.364 10 0 59639 60300.00000 0 -8419898.688 8923523.709 -22384276.572 10 0 59639 61200.00000 0 -11061940.031 8378282.389 -21423295.647 10 0 59639 62100.00000 0 -13594519.595 8046579.322 -20047077.262 10 0 59639 63000.00000 0 -15952155.834 7914698.890 -18282211.494 10 0 59639 63900.00000 0 -18074521.947 7957633.102 -16162821.504 10 0 59639 64800.00000 0 -19908762.604 8140288.005 -13729914.118 10 0 59639 65700.00000 0 -21411514.196 8419127.656 -11030596.644 10 0 59639 66600.00000 0 -22550544.683 8744186.964 -8117173.939 10 0 59639 67500.00000 0 -23305944.613 9061369.004 -5046142.190 10 0 59639 68400.00000 0 -23670819.224 9314930.128 -1877098.133 10 0 59639 69300.00000 0 -23651452.120 9450047.828 1328415.495 10 0 59639 70200.00000 0 -23266933.153 9415362.378 4508105.931 10 0 59639 71100.00000 0 -22548265.610 9165383.916 7600144.357 10 0 59639 72000.00000 0 -21536989.872 8662661.957 10544373.623 10 0 59639 72900.00000 0 -20283381.265 7879624.074 13283485.553 10 0 59639 73800.00000 0 -18844297.959 6800004.239 15764144.154 10 0 59639 74700.00000 0 -17280769.750 5419798.702 17938031.934 10 0 59639 75600.00000 0 -15655429.576 3747707.141 19762798.302 10 0 59639 76500.00000 0 -14029896.271 1805038.668 21202890.959 10 0 59639 77400.00000 0 -12462219.126 -374914.968 22230253.614 10 0 59639 78300.00000 0 -11004492.038 -2748014.149 22824876.172 10 0 59639 79200.00000 0 -9700737.700 -5260867.766 22975186.570 10 0 59639 80100.00000 0 -8585150.749 -7852825.227 22678276.558 10 0 59639 81000.00000 0 -7680773.384 -10458281.471 21939957.136 10 0 59639 81900.00000 0 -6998658.540 -13009199.165 20774642.642 10 0 59639 82800.00000 0 -6537555.004 -15437742.922 19205065.945 10 0 59639 83700.00000 0 -6284126.644 -17678915.755 17261830.480 10 0 59639 84600.00000 0 -6213695.266 -19673087.870 14982808.076 10 0 59639 85500.00000 0 -6291474.460 -21368312.270 12412394.681 10 0 59640 0.00000 0 -6474240.902 -22722330.693 9600639.124 10 0 59640 900.00000 0 -6712371.282 -23704187.180 6602260.804 10 0 59640 1800.00000 0 -6952157.185 -24295380.737 3475579.892 10 0 59640 2700.00000 0 -7138299.208 -24490512.267 281376.443 10 0 59640 3600.00000 0 -7216473.619 -24297397.971 -2918295.060 10 0 59640 4500.00000 0 -7135862.338 -23736646.624 -6061313.521 10 0 59640 5400.00000 0 -6851538.742 -22840719.746 -9086697.287 10 0 59640 6300.00000 0 -6326608.161 -21652515.438 -11935784.891 10 0 59640 7200.00000 0 -5534012.621 -20223536.453 -14553367.516 10 0 59640 8100.00000 0 -4457923.676 -18611720.146 -16888751.661 10 0 59640 9000.00000 0 -3094664.646 -16879021.683 -18896732.096 10 0 59640 9900.00000 0 -1453123.380 -15088851.704 -20538457.105 10 0 59640 10800.00000 0 445362.148 -13303475.200 -21782170.409 10 0 59640 11700.00000 0 2567641.324 -11581479.433 -22603816.546 10 0 59640 12600.00000 0 4869885.716 -9975415.574 -22987499.026 10 0 59640 13500.00000 0 7299175.253 -8529711.115 -22925783.346 10 0 59640 14400.00000 0 9795471.249 -7278938.800 -22419839.533 10 0 59640 15300.00000 0 12293895.880 -6246513.045 -21479421.714 10 0 59640 16200.00000 0 14727225.119 -5443867.157 -20122684.900 10 0 59640 17100.00000 0 17028493.259 -4870144.893 -18375841.936 10 0 59640 18000.00000 0 19133602.132 -4512418.805 -16272666.397 10 0 59640 18900.00000 0 20983827.711 -4346426.001 -13853849.912 10 0 59640 19800.00000 0 22528120.508 -4337790.498 -11166225.091 10 0 59640 20700.00000 0 23725104.154 -4443681.020 -8261868.014 10 0 59640 21600.00000 0 24544688.735 -4614834.691 -5197096.588 10 0 59640 22500.00000 0 24969231.039 -4797861.435 -2031383.396 10 0 59640 23400.00000 0 24994192.473 -4937731.788 1173796.207 10 0 59640 24300.00000 0 24628266.307 -4980342.591 4356158.555 10 0 59640 25200.00000 0 23892968.126 -4875051.429 7453825.248 10 0 59640 26100.00000 0 22821705.983 -4577071.512 10406531.668 10 0 59640 27000.00000 0 21458368.807 -4049624.369 13156806.261 10 0 59640 27900.00000 0 19855492.108 -3265757.677 15651096.844 10 0 59640 28800.00000 0 18072077.999 -2209749.660 17840821.131 10 0 59640 29700.00000 0 16171161.316 -878038.917 19683320.311 10 0 59640 30600.00000 0 14217224.279 720361.383 21142696.518 10 0 59640 31500.00000 0 12273568.640 2563984.042 22190517.348 10 0 59640 32400.00000 0 10399755.870 4619559.607 22806373.499 10 0 59640 33300.00000 0 8649222.891 6843173.334 22978278.466 10 0 59640 34200.00000 0 7067173.397 9181879.828 22702902.520 10 0 59640 35100.00000 0 5688832.839 11575708.521 21985636.434 10 0 59640 36000.00000 0 4538139.710 13959976.629 20840483.879 10 0 59640 36900.00000 0 3626927.183 16267813.075 19289784.693 10 0 59640 37800.00000 0 2954628.315 18432788.039 17363774.649 10 0 59640 38700.00000 0 2508515.808 20391538.251 15099990.511 10 0 59640 39600.00000 0 2264464.694 22086278.198 12542532.309 10 0 59640 40500.00000 0 2188204.141 23467092.301 9741197.593 10 0 59640 41400.00000 0 2237003.891 24493912.351 6750504.999 10 0 59640 42300.00000 0 2361722.529 25138097.714 3628626.772 10 0 59640 43200.00000 0 2509129.520 25383552.794 436251.625 10 0 59640 44100.00000 0 2624401.575 25227335.700 -2764599.317 10 0 59640 45000.00000 0 2653686.759 24679733.645 -5911779.844 10 0 59640 45900.00000 0 2546627.146 23763803.078 -8944225.378 10 0 59640 46800.00000 0 2258732.946 22514394.955 -11803135.480 10 0 59640 47700.00000 0 1753507.582 20976707.086 -14433109.180 10 0 59640 48600.00000 0 1004234.016 19204425.004 -16783211.506 10 0 59640 49500.00000 0 -4652.964 17257529.645 -18807951.216 10 0 59640 50400.00000 0 -1276666.207 15199863.632 -20468151.650 10 0 59640 51300.00000 0 -2802875.445 13096557.468 -21731698.935 10 0 59640 52200.00000 0 -4562043.121 11011422.282 -22574154.224 10 0 59640 53100.00000 0 -6521281.831 9004416.767 -22979219.157 10 0 59640 54000.00000 0 -8637206.975 7129292.501 -22939046.464 10 0 59640 54900.00000 0 -10857537.944 5431514.205 -22454390.312 10 0 59640 55800.00000 0 -13123082.638 3946540.164 -21534593.706 10 0 59640 56700.00000 0 -15370024.417 2698533.059 -20197413.046 10 0 59640 57600.00000 0 -17532418.022 1699553.830 -18468682.657 10 0 59640 58500.00000 0 -19544792.021 949271.441 -16381824.934 10 0 59640 59400.00000 0 -21344750.669 435200.080 -13977214.442 10 0 59640 60300.00000 0 -22875467.653 133453.601 -11301407.055 10 0 59640 61200.00000 0 -24087968.017 9985.526 -8406247.896 10 0 59640 62100.00000 0 -24943102.959 22262.484 -5347874.328 10 0 59640 63000.00000 0 -25413134.496 121300.675 -2185632.476 10 0 59640 63900.00000 0 -25482862.819 253979.403 1019072.044 10 0 59640 64800.00000 0 -25150248.161 365533.686 4203967.052 10 0 59640 65700.00000 0 -24426500.006 402119.985 7307126.997 10 0 59640 66600.00000 0 -23335628.866 313345.712 10268182.239 10 0 59640 67500.00000 0 -21913478.600 54654.276 13029500.266 10 0 59640 68400.00000 0 -20206279.217 -410536.597 15537315.048 10 0 59640 69300.00000 0 -18268780.555 -1109035.296 17742781.674 10 0 59640 70200.00000 0 -16162044.980 -2056493.239 19602935.028 10 0 59640 71100.00000 0 -13950991.709 -3256498.372 21081533.244 10 0 59640 72000.00000 0 -11701795.877 -4700185.097 22149768.996 10 0 59640 72900.00000 0 -9479251.521 -6366378.579 22786834.506 10 0 59640 73800.00000 0 -7344208.951 -8222268.709 22980329.132 10 0 59640 74700.00000 0 -5351193.876 -10224586.447 22726501.526 10 0 59640 75600.00000 0 -3546307.613 -12321234.079 22030321.723 10 0 59640 76500.00000 0 -1965495.781 -14453301.608 20905381.855 10 0 59640 77400.00000 0 -633257.209 -16557385.097 19373627.554 10 0 59640 78300.00000 0 438153.974 -18568110.029 17464925.504 10 0 59640 79200.00000 0 1249001.009 -20420753.973 15216475.734 10 0 59640 80100.00000 0 1811802.063 -22053858.593 12672080.492 10 0 59640 81000.00000 0 2150545.547 -23411721.435 9881284.297 10 0 59640 81900.00000 0 2299418.104 -24446663.061 6898402.390 10 0 59640 82800.00000 0 2301100.749 -25120974.494 3781457.127 10 0 59640 83700.00000 0 2204706.860 -25408463.600 591043.639 10 0 59640 84600.00000 0 2063450.685 -25295536.019 -2610852.569 10 0 59640 85500.00000 0 1932146.217 -24781765.937 -5762062.441 10 0 59641 0.00000 0 1864643.175 -23879933.696 -8801440.476 10 0 59641 900.00000 0 1911309.125 -22615529.003 -11670050.088 10 0 59641 1800.00000 0 2116664.515 -21025742.709 -14312300.123 10 0 59641 2700.00000 0 2517270.475 -19157988.481 -16677016.326 10 0 59641 3600.00000 0 3139958.433 -17068017.764 -18718423.518 10 0 59641 4500.00000 0 4000475.965 -14817706.528 -20397021.977 10 0 59641 5400.00000 0 5102605.727 -12472605.924 -21680341.856 10 0 59641 6300.00000 0 6437794.618 -10099358.224 -22543562.234 10 0 59641 7200.00000 0 7985309.097 -7763084.663 -22969983.832 10 0 59641 8100.00000 0 9712910.904 -5524852.489 -22951347.218 10 0 59641 9000.00000 0 11578026.038 -3439324.996 -22487990.941 10 0 59641 9900.00000 0 13529359.515 -1552690.785 -21588846.787 10 0 59641 10800.00000 0 15508890.125 99043.228 -20271272.135 10 0 59641 11700.00000 0 17454163.637 1491325.291 -18560722.050 10 0 59641 12600.00000 0 19300790.316 2611846.795 -16490266.666 10 0 59641 13500.00000 0 20985043.907 3460812.677 -14099962.049 10 0 59641 14400.00000 0 22446454.600 4050683.474 -11436085.504 10 0 59641 15300.00000 0 23630288.123 4405400.088 -8550248.978 10 0 59641 16200.00000 0 24489807.405 4559123.920 -5498406.687 10 0 59641 17100.00000 0 24988221.739 4554545.452 -2339775.374 10 0 59641 18000.00000 0 25100240.957 4440832.575 864312.254 10 0 59641 18900.00000 0 24813168.368 4271305.489 4051598.801 10 0 59641 19800.00000 0 24127485.323 4100936.851 7160114.881 10 0 59641 20700.00000 0 23056901.546 3983783.529 10129389.059 10 0 59641 21600.00000 0 21627867.926 3970459.574 12901630.898 10 0 59641 22500.00000 0 19878571.111 4105758.515 15422863.284 10 0 59641 23400.00000 0 17857451.354 4426526.892 17643981.122 10 0 59641 24300.00000 0 15621305.208 4959880.436 19521715.084 10 0 59641 25200.00000 0 13233052.256 5721839.774 21019481.011 10 0 59641 26100.00000 0 10759259.365 6716444.706 22108097.936 10 0 59641 27000.00000 0 8267526.035 7935385.787 22766360.455 10 0 59641 27900.00000 0 5823840.198 9358169.986 22981454.154 10 0 59641 28800.00000 0 3490015.022 10952814.433 22749205.942 10 0 59641 29700.00000 0 1321313.610 12677039.907 22074164.464 10 0 59641 30600.00000 0 -635639.596 14479914.546 20969509.139 10 0 59641 31500.00000 0 -2344573.985 16303879.012 19456789.738 10 0 59641 32400.00000 0 -3780843.835 18087068.307 17565501.744 10 0 59641 33300.00000 0 -4932203.319 19765832.735 15332505.993 10 0 59641 34200.00000 0 -5799054.481 21277351.994 12801304.218 10 0 59641 35100.00000 0 -6394159.612 22562232.448 10021184.987 10 0 59641 36000.00000 0 -6741832.037 23566978.326 7046257.115 10 0 59641 36900.00000 0 -6876641.359 24246232.833 3934390.011 10 0 59641 37800.00000 0 -6841689.692 24564695.090 746082.192 10 0 59641 38700.00000 0 -6686533.455 24498632.495 -2456719.409 10 0 59641 39600.00000 0 -6464839.999 24036925.334 -5611825.697 10 0 59641 40500.00000 0 -6231879.362 23181600.307 -8658013.386 10 0 59641 41400.00000 0 -6041958.016 21947831.166 -11536210.997 10 0 59641 42300.00000 0 -5945903.494 20363407.092 -14190639.802 10 0 59641 43200.00000 0 -5988706.306 18467691.613 -16569887.986 10 0 59641 44100.00000 0 -6207418.486 16310115.931 -18627897.829 10 0 59641 45000.00000 0 -6629397.052 13948269.697 -20324847.610 10 0 59641 45900.00000 0 -7270966.029 11445668.578 -21627912.281 10 0 59641 46800.00000 0 -8136553.027 8869290.898 -22511889.316 10 0 59641 47700.00000 0 -9218336.664 6286984.926 -22959678.702 10 0 59641 48600.00000 0 -10496419.898 3764853.180 -22962608.712 10 0 59641 49500.00000 0 -11939522.747 1364720.873 -22520601.820 10 0 59641 50400.00000 0 -13506166.359 -858207.922 -21642177.788 10 0 59641 51300.00000 0 -15146300.290 -2857410.702 -20344293.789 10 0 59641 52200.00000 0 -16803306.422 -4596739.411 -18652024.094 10 0 59641 53100.00000 0 -18416297.262 -6051676.481 -16598084.711 10 0 59641 54000.00000 0 -19922613.906 -7210102.783 -14222211.073 10 0 59641 54900.00000 0 -21260420.313 -8072546.076 -11570399.575 10 0 59641 55800.00000 0 -22371285.967 -8651899.984 -8694026.513 10 0 59641 56700.00000 0 -23202648.989 -8972625.515 -5648860.404 10 0 59641 57600.00000 0 -23710056.196 -9069468.790 -2493986.018 10 0 59641 58500.00000 0 -23859085.369 -8985748.970 709339.445 10 0 59641 59400.00000 0 -23626867.939 -8771288.768 3898875.976 10 0 59641 60300.00000 0 -23003146.768 -8480075.182 7012612.934 10 0 59641 61200.00000 0 -21990823.048 -8167749.819 9989979.630 10 0 59641 62100.00000 0 -20605967.867 -7889035.673 12773030.148 10 0 59641 63000.00000 0 -18877296.510 -7695210.154 15307578.593 10 0 59641 63900.00000 0 -16845126.403 -7631732.385 17544261.754 10 0 59641 64800.00000 0 -14559861.442 -7736126.317 19439507.837 10 0 59641 65700.00000 0 -12080065.513 -8036210.438 20956391.755 10 0 59641 66600.00000 0 -9470205.450 -8548750.070 22065359.832 10 0 59641 67500.00000 0 -6798157.564 -9278590.321 22744809.500 10 0 59641 68400.00000 0 -4132581.748 -10218307.288 22981512.586 10 0 59641 69300.00000 0 -1540272.775 -11348393.062 22770873.831 10 0 59641 70200.00000 0 916400.866 -12637967.409 22117019.681 10 0 59641 71100.00000 0 3181864.061 -14045986.678 21032715.714 10 0 59641 72000.00000 0 5209409.725 -15522899.280 19539114.416 10 0 59641 72900.00000 0 6962895.191 -17012678.191 17665338.413 10 0 59641 73800.00000 0 8417990.555 -18455144.904 15447907.460 10 0 59641 74700.00000 0 9562927.998 -19788486.779 12930020.692 10 0 59641 75600.00000 0 10398722.410 -20951861.596 10160708.461 10 0 59641 76500.00000 0 10938855.894 -21887979.363 7193870.744 10 0 59641 77400.00000 0 11208441.377 -22545552.382 4087221.481 10 0 59641 78300.00000 0 11242902.586 -22881510.262 901159.991 10 0 59641 79200.00000 0 11086227.953 -22862886.571 -2302407.937 10 0 59641 80100.00000 0 10788873.858 -22468297.835 -5461275.703 10 0 59641 81000.00000 0 10405407.186 -21688952.936 -8514144.398 10 0 59641 81900.00000 0 9991987.852 -20529150.823 -11401810.505 10 0 59641 82800.00000 0 9603798.262 -19006246.058 -14068309.612 10 0 59641 83700.00000 0 9292528.527 -17150083.997 -16461994.331 10 0 59641 84600.00000 0 9104023.399 -15001929.407 -18536526.174 10 0 59641 85500.00000 0 9076189.793 -12612933.329 -20251762.946 10 0 59642 0.00000 0 9237252.403 -10042202.025 -21574525.505 10 0 59642 900.00000 0 9604430.454 -7354546.347 -22479230.837 10 0 59642 1800.00000 0 10183090.442 -4618007.658 -22948378.556 10 0 59642 2700.00000 0 10966410.623 -1901257.161 -22972884.786 10 0 59642 3600.00000 0 11935571.303 729021.553 -22552255.707 10 0 59642 4500.00000 0 13060463.573 3210661.084 -21694598.517 10 0 59642 5400.00000 0 14300887.681 5488346.456 -20416469.344 10 0 59642 6300.00000 0 15608192.077 7515663.614 -18742560.542 10 0 59642 7200.00000 0 16927285.747 9256776.310 -16705232.601 10 0 59642 8100.00000 0 18198940.876 10687662.743 -14343898.645 10 0 59642 9000.00000 0 19362290.489 11796861.198 -11704272.202 10 0 59642 9900.00000 0 20357417.123 12585693.989 -8837491.666 10 0 59642 10800.00000 0 21127924.330 13067960.698 -5799137.343 10 0 59642 11700.00000 0 21623382.938 13269113.628 -2648159.283 10 0 59642 12600.00000 0 21801548.722 13224950.228 554263.724 10 0 59642 13500.00000 0 21630257.222 12979877.577 3745912.038 10 0 59642 14400.00000 0 21088914.676 12584822.330 6864736.725 10 0 59642 15300.00000 0 20169520.744 12094874.675 9850070.694 10 0 59642 16200.00000 0 18877178.333 11566766.387 12643815.232 10 0 59642 17100.00000 0 17230067.372 11056290.351 15191578.100 10 0 59642 18000.00000 0 15258882.132 10615771.490 17443740.153 10 0 59642 18900.00000 0 13005754.360 10291697.058 19356429.020 10 0 59642 19800.00000 0 10522706.243 10122607.452 20892380.267 10 0 59642 20700.00000 0 7869697.248 10137337.656 22021668.740 10 0 59642 21600.00000 0 5112345.911 10353684.489 22722295.579 10 0 59642 22500.00000 0 2319421.350 10777556.680 22980619.298 10 0 59642 23400.00000 0 -439790.982 11402644.230 22791622.462 10 0 59642 24300.00000 0 -3098139.655 12210621.462 22159008.823 10 0 59642 25200.00000 0 -5593163.528 13171875.446 21095129.096 10 0 59642 26100.00000 0 -7869447.593 14246729.195 19620736.955 10 0 59642 27000.00000 0 -9880680.784 15387107.985 17764580.167 10 0 59642 27900.00000 0 -11591330.646 16538578.365 15562835.001 10 0 59642 28800.00000 0 -12977865.943 17642673.542 13058395.273 10 0 59642 29700.00000 0 -14029477.460 18639406.679 10300030.183 10 0 59642 30600.00000 0 -14748268.466 19469865.672 7341427.825 10 0 59642 31500.00000 0 -15148908.615 20078779.499 4240143.591 10 0 59642 32400.00000 0 -15257767.871 20416947.553 1056474.573 10 0 59642 33300.00000 0 -15111568.825 20443429.234 -2147717.542 10 0 59642 34200.00000 0 -14755616.055 20127401.396 -5310211.462 10 0 59642 35100.00000 0 -14241678.821 19449605.409 -8369635.324 10 0 59642 36000.00000 0 -13625617.704 18403323.090 -11266656.015 10 0 59642 36900.00000 0 -12964856.212 16994840.667 -13945125.621 10 0 59642 37800.00000 0 -12315804.444 15243381.509 -16353163.066 10 0 59642 38700.00000 0 -11731343.461 13180510.465 -18444150.639 10 0 59642 39600.00000 0 -11258475.961 10849034.672 -20177626.863 10 0 59642 40500.00000 0 -10936241.560 8301446.298 -21520059.545 10 0 59642 41400.00000 0 -10793983.526 5597971.378 -22445485.187 10 0 59642 42300.00000 0 -10850039.096 2804304.990 -22936003.450 10 0 59642 43200.00000 0 -11110907.693 -10874.505 -22982118.085 10 0 59642 44100.00000 0 -11570931.659 -2778510.543 -22582918.411 10 0 59642 45000.00000 0 -12212502.855 -5431786.289 -21746098.118 10 0 59642 45900.00000 0 -13006786.901 -7908648.590 -20487810.985 10 0 59642 46800.00000 0 -13914935.400 -10154134.844 -18832365.795 10 0 59642 47700.00000 0 -14889736.289 -12122407.523 -16811765.551 10 0 59642 48600.00000 0 -15877634.207 -13778412.947 -14465098.850 10 0 59642 49500.00000 0 -16821037.111 -15099096.099 -11837793.937 10 0 59642 50400.00000 0 -17660813.152 -16074121.297 -8980748.780 10 0 59642 51300.00000 0 -18338873.368 -16706068.895 -5949352.887 10 0 59642 52200.00000 0 -18800731.696 -17010099.878 -2802418.991 10 0 59642 53100.00000 0 -18997934.171 -17013102.363 398955.105 10 0 59642 54000.00000 0 -18890254.185 -16752355.877 3592572.676 10 0 59642 54900.00000 0 -18447560.102 -16273769.702 6716349.009 10 0 59642 55800.00000 0 -17651274.999 -15629769.707 9709523.061 10 0 59642 56700.00000 0 -16495365.287 -14876923.227 12513845.685 10 0 59642 57600.00000 0 -14986814.774 -14073402.807 15074720.527 10 0 59642 58500.00000 0 -13145562.439 -13276396.592 17342274.517 10 0 59642 59400.00000 0 -11003904.914 -12539575.580 19272336.444 10 0 59642 60300.00000 0 -8605387.241 -11910725.470 20827303.909 10 0 59642 61200.00000 0 -6003227.296 -11429643.910 21976881.281 10 0 59642 62100.00000 0 -3258338.856 -11126392.573 22698673.980 10 0 59642 63000.00000 0 -437035.234 -11019978.329 22978627.364 10 0 59642 63900.00000 0 2391491.016 -11117519.557 22811301.575 10 0 59642 64800.00000 0 5157807.618 -11413932.889 22199977.050 10 0 59642 65700.00000 0 7794891.514 -11892153.633 21156588.693 10 0 59642 66600.00000 0 10240677.053 -12523880.389 19701490.121 10 0 59642 67500.00000 0 12440397.610 -13270812.120 17863052.719 10 0 59642 68400.00000 0 14348623.526 -14086325.045 15677107.496 10 0 59642 69300.00000 0 15930912.021 -14917518.007 13186240.899 10 0 59642 70200.00000 0 17165001.184 -15707539.347 10438958.683 10 0 59642 71100.00000 0 18041499.463 -16398096.376 7488734.510 10 0 59642 72000.00000 0 18564043.223 -16932040.804 4392962.470 10 0 59642 72900.00000 0 18748917.634 -17255920.373 1211834.510 10 0 59642 73800.00000 0 18624158.648 -17322388.458 -1992834.758 10 0 59642 74700.00000 0 18228175.694 -17092369.624 -5158812.312 10 0 59642 75600.00000 0 17607954.824 -16536889.576 -8224656.171 10 0 59642 76500.00000 0 16816919.412 -15638492.360 -11130906.287 10 0 59642 77400.00000 0 15912539.661 -14392185.183 -13821233.654 10 0 59642 78300.00000 0 14953792.244 -12805871.203 -16243525.645 10 0 59642 79200.00000 0 13998577.236 -10900252.071 -18350887.157 10 0 59642 80100.00000 0 13101200.789 -8708204.156 -20102538.933 10 0 59642 81000.00000 0 12310028.784 -6273654.109 -21464596.770 10 0 59642 81900.00000 0 11665409.134 -3649999.867 -22410717.693 10 0 59642 82800.00000 0 11197948.987 -898141.937 -22922601.639 10 0 59642 83700.00000 0 10927218.115 1915794.564 -22990339.970 10 0 59642 84600.00000 0 10860932.067 4722954.116 -22612604.735 10 0 59642 85500.00000 0 10994648.808 7454359.341 -21796675.357 99